• In Russia
  • List of Countries
  • For 7 days
  • Water Temperature
  • Satellite Maps
  • Weather Map
  • Weather Widgets
  • user-avatar
    Login

    Hourly Weather Ischgl

    Today, 21 August, Monday

    Time Temperature Precipitation Wind Pressure Humidity
    00:00 +1°C° 0 mm 1 mps 578 mmHg 86%
    01:00 +1°C° 0 mm 1 mps 577 mmHg 86%
    02:00 +1°C° 0 mm 1 mps 577 mmHg 83%
    03:00 +1°C° 0 mm 1 mps 577 mmHg 80%
    04:00 0°C° 0 mm 1 mps 577 mmHg 77%
    05:00 +2°C° 0 mm 1 mps 577 mmHg 71%
    06:00 +3°C° 0 mm 1 mps 578 mmHg 65%
    07:00 +4°C° 0 mm 1 mps 579 mmHg 60%
    08:00 +6°C° 0 mm 1 mps 580 mmHg 53%
    09:00 +7°C° 0 mm 2 mps 581 mmHg 47%
    10:00 +9°C° 0 mm 2 mps 581 mmHg 40%
    11:00 +9°C° 0 mm 2 mps 581 mmHg 42%
    12:00 +9°C° 0 mm 2 mps 581 mmHg 44%
    13:00 +10°C° 0 mm 1 mps 581 mmHg 45%
    14:00 +10°C° 0 mm 1 mps 581 mmHg 47%
    15:00 +10°C° 0 mm 1 mps 580 mmHg 49%
    16:00 +10°C° 0 mm 1 mps 580 mmHg 51%
    17:00 +8°C° 0 mm 1 mps 580 mmHg 57%
    18:00 +7°C° 0 mm 1 mps 579 mmHg 64%
    19:00 +6°C° 0 mm 1 mps 579 mmHg 70%
    20:00 +5°C° 0 mm 1 mps 579 mmHg 73%
    21:00 +4°C° 0 mm 1 mps 578 mmHg 76%
    22:00 +3°C° 0 mm 1 mps 578 mmHg 78%
    23:00 +3°C° 0 mm 1 mps 578 mmHg 78%

    Tomorrow, 22 August, Tuesday

    Time Temperature Precipitation Wind Pressure Humidity
    00:00 +3°C° 0 mm 1 mps 578 mmHg 79%
    01:00 +2°C° 0 mm 1 mps 577 mmHg 79%
    02:00 +2°C° 0 mm 1 mps 577 mmHg 79%
    03:00 +2°C° 0 mm 1 mps 577 mmHg 79%
    04:00 +2°C° 0 mm 1 mps 577 mmHg 79%
    05:00 +4°C° 0 mm 1 mps 578 mmHg 76%
    06:00 +5°C° 0 mm 1 mps 579 mmHg 73%
    07:00 +7°C° 0 mm 1 mps 579 mmHg 71%
    08:00 +9°C° 0 mm 1 mps 580 mmHg 65%
    09:00 +11°C° 0 mm 1 mps 581 mmHg 60%
    10:00 +13°C° 0 mm 1 mps 582 mmHg 54%
    11:00 +14°C° 0 mm 1 mps 582 mmHg 52%
    12:00 +15°C° 0 mm 1 mps 582 mmHg 50%
    13:00 +15°C° 0 mm 2 mps 582 mmHg 48%
    14:00 +15°C° 0 mm 2 mps 582 mmHg 49%
    15:00 +15°C° 0 mm 2 mps 582 mmHg 51%
    16:00 +15°C° 0 mm 2 mps 581 mmHg 52%
    17:00 +13°C° 0 mm 2 mps 580 mmHg 63%
    18:00 +10°C° 0 mm 2 mps 579 mmHg 74%
    19:00 +9°C° 0 mm 1 mps 578 mmHg 84%
    20:00 +8°C° 0 mm 1 mps 578 mmHg 87%
    21:00 +7°C° 0 mm 1 mps 578 mmHg 91%
    22:00 +5°C° 0 mm 1 mps 577 mmHg 94%
    23:00 +5°C° 0 mm 1 mps 577 mmHg 92%

    Day after tomorrow, 23 August, Wednesday

    Time Temperature Precipitation Wind Pressure Humidity
    00:00 +5°C° 0 mm 1 mps 577 mmHg 91%
    01:00 +5°C° 0 mm 1 mps 577 mmHg 90%
    02:00 +5°C° 0 mm 1 mps 577 mmHg 86%
    03:00 +4°C° 0 mm 1 mps 576 mmHg 82%
    04:00 +4°C° 0 mm 1 mps 576 mmHg 78%
    05:00 +6°C° 0 mm 1 mps 577 mmHg 72%
    06:00 +7°C° 0 mm 1 mps 578 mmHg 67%
    07:00 +9°C° 0 mm 1 mps 579 mmHg 62%
    08:00 +11°C° 0 mm 1 mps 580 mmHg 54%
    09:00 +13°C° 0 mm 1 mps 581 mmHg 46%
    10:00 +16°C° 0 mm 1 mps 582 mmHg 38%
    11:00 +16°C° 0 mm 1 mps 582 mmHg 37%
    12:00 +18°C° 0 mm 1 mps 582 mmHg 35%
    13:00 +19°C° 0 mm 1 mps 582 mmHg 33%
    14:00 +18°C° 0 mm 2 mps 582 mmHg 35%
    15:00 +18°C° 0 mm 2 mps 582 mmHg 37%
    16:00 +17°C° 0 mm 2 mps 582 mmHg 38%
    17:00 +15°C° 0.1 mm 2 mps 581 mmHg 50%
    18:00 +13°C° 0.1 mm 1 mps 580 mmHg 61%
    19:00 +10°C° 0.1 mm 1 mps 579 mmHg 73%
    20:00 +9°C° 0 mm 1 mps 579 mmHg 74%
    21:00 +8°C° 0 mm 1 mps 578 mmHg 75%
    22:00 +7°C° 0 mm 1 mps 578 mmHg 76%
    23:00 +7°C° 0 mm 1 mps 578 mmHg 75%

    24 August, Thursday

    Time Temperature Precipitation Wind Pressure Humidity
    00:00 +7°C° 0 mm 1 mps 578 mmHg 73%
    01:00 +7°C° 0 mm 1 mps 578 mmHg 72%
    02:00 +7°C° 0 mm 1 mps 578 mmHg 72%
    03:00 +6°C° 0 mm 1 mps 578 mmHg 72%
    04:00 +6°C° 0 mm 1 mps 577 mmHg 71%
    05:00 +8°C° 0 mm 1 mps 578 mmHg 69%
    06:00 +9°C° 0 mm 1 mps 579 mmHg 67%
    07:00 +10°C° 0 mm 1 mps 580 mmHg 65%
    08:00 +12°C° 0 mm 1 mps 581 mmHg 58%
    09:00 +14°C° 0 mm 1 mps 582 mmHg 52%
    10:00 +16°C° 0 mm 1 mps 582 mmHg 45%
    11:00 +16°C° 0.1 mm 1 mps 583 mmHg 45%
    12:00 +18°C° 0.1 mm 1 mps 583 mmHg 45%
    13:00 +17°C° 0.1 mm 2 mps 583 mmHg 45%
    14:00 +18°C° 0.3 mm 1 mps 582 mmHg 50%
    15:00 +16°C° 0.3 mm 1 mps 582 mmHg 55%
    16:00 +15°C° 0.3 mm 1 mps 581 mmHg 60%
    17:00 +14°C° 0.6 mm 1 mps 581 mmHg 68%
    18:00 +12°C° 0.6 mm 1 mps 580 mmHg 75%
    19:00 +11°C° 0.6 mm 1 mps 579 mmHg 83%
    20:00 +10°C° 0.2 mm 1 mps 579 mmHg 84%
    21:00 +10°C° 0.2 mm 1 mps 579 mmHg 86%
    22:00 +8°C° 0.2 mm 2 mps 579 mmHg 87%
    23:00 +8°C° 0 mm 2 mps 579 mmHg 87%

    25 August, Friday

    Time Temperature Precipitation Wind Pressure Humidity
    00:00 +7°C° 0 mm 2 mps 578 mmHg 88%
    01:00 +7°C° 0 mm 2 mps 578 mmHg 88%
    02:00 +7°C° 0 mm 2 mps 578 mmHg 88%
    03:00 +7°C° 0 mm 2 mps 578 mmHg 87%
    04:00 +6°C° 0 mm 2 mps 577 mmHg 87%
    05:00 +7°C° 0 mm 2 mps 578 mmHg 85%
    06:00 +8°C° 0 mm 2 mps 578 mmHg 84%
    07:00 +8°C° 0 mm 2 mps 578 mmHg 82%
    08:00 +10°C° 0 mm 2 mps 579 mmHg 74%
    09:00 +13°C° 0 mm 2 mps 580 mmHg 66%
    10:00 +15°C° 0 mm 2 mps 581 mmHg 59%
    11:00 +15°C° 0.3 mm 2 mps 581 mmHg 63%
    12:00 +14°C° 0.3 mm 2 mps 580 mmHg 67%
    13:00 +14°C° 0.3 mm 2 mps 580 mmHg 71%
    14:00 +13°C° 1 mm 2 mps 580 mmHg 75%
    15:00 +13°C° 1 mm 2 mps 580 mmHg 80%
    16:00 +12°C° 1 mm 2 mps 579 mmHg 84%
    17:00 +10°C° 1.1 mm 2 mps 579 mmHg 88%
    18:00 +11°C° 1.1 mm 1 mps 579 mmHg 91%
    19:00 +10°C° 1.1 mm 1 mps 579 mmHg 94%
    20:00 +10°C° 0.9 mm 1 mps 579 mmHg 95%
    21:00 +9°C° 0.9 mm 1 mps 579 mmHg 95%
    22:00 +9°C° 0.9 mm 1 mps 579 mmHg 95%
    23:00 +8°C° 0.5 mm 1 mps 578 mmHg 95%

    26 August, Saturday

    Time Temperature Precipitation Wind Pressure Humidity
    00:00 +7°C° 0.5 mm 2 mps 578 mmHg 94%
    01:00 +7°C° 0.5 mm 2 mps 578 mmHg 93%
    02:00 +7°C° 0.1 mm 2 mps 578 mmHg 93%
    03:00 +6°C° 0.1 mm 2 mps 577 mmHg 92%
    04:00 +6°C° 0.1 mm 2 mps 577 mmHg 91%
    05:00 +6°C° 0 mm 2 mps 577 mmHg 89%
    06:00 +7°C° 0 mm 2 mps 578 mmHg 88%
    07:00 +8°C° 0 mm 2 mps 578 mmHg 86%
    08:00 +10°C° 0 mm 2 mps 579 mmHg 77%
    09:00 +13°C° 0 mm 2 mps 580 mmHg 67%
    10:00 +15°C° 0 mm 2 mps 581 mmHg 58%
    11:00 +16°C° 0.2 mm 2 mps 581 mmHg 55%
    12:00 +16°C° 0.2 mm 3 mps 581 mmHg 53%
    13:00 +17°C° 0.2 mm 3 mps 582 mmHg 50%
    14:00 +16°C° 0.8 mm 3 mps 581 mmHg 56%
    15:00 +16°C° 0.8 mm 3 mps 581 mmHg 62%
    16:00 +15°C° 0.8 mm 2 mps 580 mmHg 67%
    17:00 +13°C° 0.8 mm 2 mps 579 mmHg 74%
    18:00 +12°C° 0.8 mm 2 mps 579 mmHg 80%
    19:00 +10°C° 0.8 mm 2 mps 578 mmHg 86%
    20:00 +9°C° 0.1 mm 2 mps 578 mmHg 88%
    21:00 +8°C° 0.1 mm 2 mps 578 mmHg 90%
    22:00 +7°C° 0.1 mm 3 mps 577 mmHg 91%
    23:00 +7°C° 0 mm 3 mps 577 mmHg 91%
    Show more